Regional Weather Roundup
Issued by NWS

Home | Current Version | Previous Version | Graphics & Text | Print | Product List | Glossary On
Versions: 1 2 3 4 5 6 7 8 9 10 11 12 13 14 15 16 17 18 19 20 21 22 23 24 25 26 27 28 29 30 31 32 33 34 35 36 37 38 39 40 41 42 43 44 45 46 47 48 49 50
000
ASUS43 KMPX 171110
RWRMN
WEATHER ROUNDUP FOR MINNESOTA
NATIONAL WEATHER SERVICE TWIN CITIES/CHANHASSEN MN
500 AM CST TUE JAN 17 2017


NOTE: "FAIR" INDICATES FEW OR NO CLOUDS BELOW 12,000 FEET WITH NO
SIGNIFICANT WEATHER AND/OR OBSTRUCTIONS TO VISIBILITY. N/A MEANS
CURRENT SKY AND/OR WEATHER CONDITIONS ARE NOT AVAILABLE.

MNZ060>063-068>070-171200-
   Twin Cities Metro

CITY           SKY/WX    TMP DP  RH WIND       PRES   REMARKS
TWIN CITIES    LGT SNOW  31  28  89 N6        29.93F FOG     WCI  25
ST PAUL        MIX PCPN  32  31  96 N3        29.94F FOG
CRYSTAL        MIX PCPN  30  26  85 N6        29.92F FOG     WCI  24
BLAINE         MIX PCPN  34  32  93 N5        29.93F WCI  30
LAKEVILLE      LGT SNOW  30  30 100 N7        29.92S WCI  23
EDEN PRAIRIE   MIX PCPN  31  28  89 N6        29.92F FOG     WCI  25
SOUTH ST PAUL  LGT SNOW  32  31  97 N6        29.92F WCI  26
LAKE ELMO      LGT SNOW  32  32 100 N5        29.93F WCI  27
$$
MNZ001>005-007-008-013>017-022>024-027-028-171200-
   Northwest Minnesota

CITY           SKY/WX    TMP DP  RH WIND       PRES   REMARKS
BEMIDJI        CLOUDY     0  -4  86 CALM      29.94F
HALLOCK        CLOUDY     1  -2  85 S5        29.95S WCI  -8
ROSEAU         CLOUDY     0  -6  78 CALM      29.94S
WARROAD        CLOUDY     1  -2  85 CALM      29.93F
THIEF RVR FALL CLOUDY     1  -3  83 S3        29.96F
CROOKSTON      CLOUDY     1  -2  85 SE9       29.96F WCI -14
FOSSTON        CLOUDY     0  -2  92 CALM      29.96S FOG
DETROIT LAKES  CLOUDY     3   0  85 CALM      29.96F
MOORHEAD       CLOUDY     0  -4  85 SE3       30.00S
PARK RAPIDS    CLOUDY    -3 -11  68 CALM      29.94F HAZE
MAHNOMEN       FAIR       6   3  88 S5        29.96F WCI  -3
$$
MNZ006-009>011-018-025>026-171200-
   North Central Minnesota

CITY           SKY/WX    TMP DP  RH WIND       PRES   REMARKS
BAUDETTE       CLOUDY    -5 -10  79 CALM      29.95S
FLAG ISLAND    CLOUDY     1  -2  85 S8        29.92F WCI -12
INTL FALLS     CLOUDY    -1  -8  72 SE3       29.94F
WASKISH        CLOUDY    -2  -6  84 CALM      29.95F
BIG FORK       CLOUDY    -2  -6  84 CALM      29.94F
LONGVILLE      CLOUDY     0  -4  85 CALM      29.95F
GRAND RAPIDS   CLOUDY     3   0  87 CALM      29.96F
CRANE LAKE     CLOUDY    -4  -8  84 CALM      29.98S
ORR            CLOUDY     7   1  78 CALM      29.93R
COOK           CLOUDY    -2  -6  84 CALM      29.94F
WALKER         FAIR       2  -1  85 CALM      29.95F
$$
MNZ012-019>021-037-171200-
   Northeast Minnesota

CITY           SKY/WX    TMP DP  RH WIND       PRES   REMARKS
DULUTH         PTCLDY    19  14  81 N5        29.93F WCI  12
ELY            CLOUDY    -2  -6  84 CALM      29.95S
HIBBING        CLOUDY    -3  -6  87 CALM      29.94F
EVELETH        CLOUDY     2  -3  81 CALM      29.96S
DULUTH HARBOR  CLOUDY    23  19  86 CALM      29.98F
TWO HARBORS    CLOUDY    27  21  80 N3        29.93F HAZE
SILVER BAY     FOG       18  18 100 CALM      29.94F VSB 1/2
GRAND MARAIS     N/A     22  20  92 N5        29.98F WCI  16
G MARAIS ARPRT CLOUDY    12   9  85 N3        29.93F FOG
$$
MNZ029>031-032-039>041-046>048-054>057-064-171200-
   West Central Minnesota

CITY           SKY/WX    TMP DP  RH WIND       PRES   REMARKS
FERGUS FALLS   CLOUDY     5   1  85 CALM      30.04F
WHEATON        CLOUDY    10   9  92 W3        30.02F
MORRIS         CLOUDY     7   3  85 CALM      29.99F
ALEXANDRIA     CLOUDY     4   2  91 W3        29.97S FOG
ELBOW LAKE     FAIR       4   1  89 CALM      29.99S
WADENA         CLOUDY    -4  -8  84 CALM      29.97S
GLENWOOD       PTCLDY    19  16  86 CALM      29.97F
APPLETON       CLOUDY     7   3  85 W6        30.02S WCI  -3
ORTONVILLE     CLOUDY     7   1  78 CALM      30.00F
MADISON        CLOUDY    10   9  92 NW3       30.02F
WILLMAR        CLOUDY    25  25 100 NW9       29.99S FOG     WCI  15
$$
MNZ033>034-036-042>043-049>051-058-059-171200-
   Central Minnesota

CITY           SKY/WX    TMP DP  RH WIND       PRES   REMARKS
ST CLOUD       CLOUDY    21  20  96 NW3       29.96R FOG
SAUK CENTRE    CLOUDY    23  22  96 NW5       29.97S FOG     WCI  16
PAYNESVILLE    CLOUDY    30  30 100 NW5       29.97R FOG     WCI  25
AITKIN         CLOUDY     1  -6  71 CALM      29.95R
PINE RIVER     CLOUDY     0  -2  92 CALM      29.99F FOG
BRAINERD       FOG        9   7  92 CALM      29.97R VSB 1/4
STAPLES        FOG        0  -2  92 CALM      29.96F VSB 1/2
LONG PRAIRIE   CLOUDY    21  19  93 CALM      29.97S FOG
LITTLE FALLS   FOG       27  23  86 CALM      29.98R VSB 3/4
LITCHFIELD     CLOUDY    30  28  93 NW5       29.96S FOG     WCI  25
BUFFALO        CLOUDY    30  25  80 N7        29.96S WCI  23
MAPLE LAKE     CLOUDY    30  26  86 N6        29.96S WCI  24
HUTCHINSON     CLOUDY    31  27  85 NW8       29.96S WCI  24
$$
MNZ037-044-045-052-053-171200-
   East Central Minnesota

CITY           SKY/WX    TMP DP  RH WIND       PRES   REMARKS
PRINCETON      CLOUDY    25  19  80 CALM      29.95S
MORA           CLOUDY    21  18  86 CALM      29.96F
CAMBRIDGE      CLOUDY    30  19  64 N3        29.93F
RUSH CITY      CLOUDY    28  23  80 N5        29.95S WCI  23
MOOSE LAKE     CLOUDY    18  14  86 CALM      29.94F
HINCKLEY       FAIR      28  21  74 N5        29.94F WCI  23
CLOQUET        CLOUDY    12  10  92 NW3       29.94S
MCGREGOR       CLOUDY     3   1  92 CALM      29.96S
$$
MNZ071>073-080-081-089-090-097-098-171200-
   Southwest Minnesota

CITY           SKY/WX    TMP DP  RH WIND       PRES   REMARKS
MONTEVIDEO     CLOUDY    18  16  93 N8        30.02S WCI   7
GRANITE FALLS  CLOUDY    21  18  89 W12       30.02S WCI   9
CANBY            N/A     14  10  85 CALM      30.02F
MARSHALL       CLOUDY    18  14  84 NW12      30.01R WCI   5
REDWOOD FALLS  CLOUDY    24  21  88 NW15      29.98R FOG     WCI  11
OLIVIA         CLOUDY    23  21  93 NW13      29.97R FOG     WCI  11
PIPESTONE      CLOUDY    25  23  93 NW8       29.97S FOG     WCI  16
WINDOM           N/A     25  25 100 NW8       29.95R FOG     WCI  16
WORTHINGTON    CLOUDY    26  24  92 NW12      29.96R FOG     WCI  16
JACKSON        CLOUDY    27  27 100 NW7       29.95R FOG     WCI  19
TRACY          CLOUDY    21  20  96 NW9       29.99R WCI  10
SLAYTON        CLOUDY    23  23  99 NW8       29.97R FOG     WCI  14
$$
MNZ065>067-074>077-082>085-091>093-171200-
   South Central Minnesota

CITY           SKY/WX    TMP DP  RH WIND       PRES   REMARKS
MANKATO        LGT SNOW  28  27  96 NW8       29.93F FOG     WCI  20
NEW ULM        CLOUDY    30  28  93 NW7       29.95S FOG     WCI  23
ST JAMES       FOG       27  27 100 W9        29.96S VSB 3/4 WCI  17
FAIRMONT       FOG       30  28  93 N15       29.94S VSB 1/2 WCI  19
GLENCOE        CLOUDY    31  29  91 N3        29.93F
FARIBAULT      MIX PCPN  30  28  93 NW6       29.91S WCI  24
OWATONNA       MIX PCPN  30  28  93 N3        29.90S
WASECA         CLOUDY    30  28  93 NW6       29.92S FOG     WCI  24
ALBERT LEA     CLOUDY    30  30 100 N6        29.89S FOG     WCI  24
$$
MNZ078>079-086>088-094>096-171200-
   Southeast Minnesota

CITY           SKY/WX    TMP DP  RH WIND       PRES   REMARKS
ROCHESTER      LGT SNOW  31  31 100 N10       29.87S FOG     WCI  22
RED WING       MIX PCPN  34  30  86 CALM      29.90F
STANTON        MIX PCPN  32  30  93 N7        29.90S WCI  26
DODGE CENTER   MIX PCPN  30  30 100 CALM      29.87F
WINONA         CLOUDY    34  34 100 NW5       29.89S FOG     WCI  30
AUSTIN         CLOUDY    32  30  93 N3        29.88S FOG
PRESTON        CLOUDY    31  31  97 N5        29.86F FOG     WCI  27
$$
ABBREVIATIONS USED IN REMARKS
   TC - TEMPERATURES IN CELSIUS
  WCI - WIND CHILL INDEX
   HX - HEAT INDEX
  VSB - VISIBILITY
$$




USA.gov is the U.S. government's official web portal to all federal, state and local government web resources and services.